Date String (YYYY-MM-DD hh:mm:ss) UTC,Instrument flags,absolute air pressure of the measurement (hPa),sample flow rate (lpm),inlet stack bypass flow (lpm),air temperature of the measurement (°C),ambient temperature measured by the external sensor (°C),aerosol sample conditioner tube jacket temperature (°C),OPC LED temperature (°C),internal box temperature (°C),relative humidity of the measurement (%),span deviation,mass concentration of particles derived from Lorenz-Mie calculation of OPC scattering (μg/m³),mass concentration of particles derived from Lorenz-Mie calculation of OPC scattering (μg/m³),mass concentration of particles derived from Lorenz-Mie calculation of OPC scattering (μg/m³)
DateTimeUTC,F1_M11,P_M11,Q1_M11,Q2_M11,T1_M11,T2_M11,T3_M11,T4_M11,T5_M11,U1_M11,ZSPAN_M11,X2_M11,X0_M11,X1_M11
2024-03-19 20:00:00,SystemResetWarning,0828.1,5.00,000.00,023.0,022.4,000.0,031.3,024.8,13.9,0000.0,0004.18,0010.41,0003.37
2024-03-19 20:01:00,SystemResetWarning,0828.1,4.99,000.00,023.0,022.5,000.0,031.3,024.8,14.3,0000.0,0004.26,0010.44,0003.41
2024-03-19 20:02:00,SystemResetWarning,0828.1,4.99,000.00,023.0,022.5,000.0,031.3,024.8,14.3,0000.0,0004.27,0010.14,0003.43
2024-03-19 20:03:00,SystemResetWarning,0828.0,5.01,000.00,023.0,022.5,000.0,031.3,024.8,14.6,0000.0,0004.30,0011.12,0003.45
2024-03-19 20:04:00,SystemResetWarning,0828.1,5.01,000.00,023.1,022.5,000.0,031.3,024.9,14.5,0000.0,0004.30,0010.73,0003.46
2024-03-19 20:05:00,SystemResetWarning,0828.1,5.00,000.00,023.1,022.5,000.0,031.4,024.9,14.4,0000.0,0004.30,0010.69,0003.47
2024-03-19 20:06:00,SystemResetWarning,0828.1,5.00,000.00,023.1,022.6,000.0,031.4,024.9,15.1,0000.0,0004.32,0011.06,0003.48
2024-03-19 20:07:00,SystemResetWarning,0828.1,4.99,000.00,023.1,022.6,000.0,031.4,024.9,15.5,0000.0,0004.28,0010.89,0003.48
2024-03-19 20:08:00,SystemResetWarning,0828.0,5.00,000.00,023.1,022.6,000.0,031.4,024.9,15.2,0000.0,0004.33,0010.94,0003.49
2024-03-19 20:09:00,SystemResetWarning,0828.1,5.01,000.00,023.1,022.6,000.0,031.4,024.9,14.1,0000.0,0004.42,0011.28,0003.50
2024-03-19 20:10:00,SystemResetWarning,0828.0,5.01,000.00,023.1,022.6,000.0,031.4,025.0,13.8,0000.0,0004.43,0011.45,0003.51
2024-03-19 20:11:00,SystemResetWarning,0828.0,5.00,000.00,023.2,022.6,000.0,031.4,025.0,14.1,0000.0,0004.40,0011.51,0003.52
2024-03-19 20:12:00,SystemResetWarning,0827.8,4.99,000.00,023.2,022.6,000.0,031.5,025.0,13.7,0000.0,0004.37,0011.93,0003.54
2024-03-19 20:13:00,SystemResetWarning,0827.9,4.99,000.00,023.2,022.6,000.0,031.5,025.0,14.0,0000.0,0004.41,0011.65,0003.57
2024-03-19 20:14:00,SystemResetWarning,0827.8,5.00,000.00,023.2,022.7,000.0,031.5,025.0,14.3,0000.0,0004.43,0011.35,0003.58
2024-03-19 20:15:00,SystemResetWarning,0827.8,5.00,000.00,023.2,022.7,000.0,031.5,025.0,14.9,0000.0,0004.45,0011.57,0003.61
2024-03-19 20:16:00,SystemResetWarning,0827.8,5.00,000.00,023.2,022.7,000.0,031.5,025.0,14.2,0000.0,0004.46,0011.87,0003.64
2024-03-19 20:17:00,SystemResetWarning,0827.8,5.00,000.00,023.2,022.7,000.0,031.5,025.0,13.9,0000.0,0004.49,0011.65,0003.66
2024-03-19 20:18:00,SystemResetWarning,0827.8,5.01,000.00,023.3,022.7,000.0,031.5,025.0,13.5,0000.0,0004.54,0012.30,0003.68
2024-03-19 20:19:00,SystemResetWarning,0827.8,4.99,000.00,023.3,022.7,000.0,031.6,025.0,13.4,0000.0,0004.51,0012.38,0003.70
2024-03-19 20:20:00,SystemResetWarning,0827.7,4.99,000.00,023.3,022.7,000.0,031.6,025.1,13.9,0000.0,0004.41,0012.56,0003.69
2024-03-19 20:21:00,SystemResetWarning,0827.8,5.00,000.00,023.3,022.7,000.0,031.6,025.1,14.4,0000.0,0004.37,0012.39,0003.68
2024-03-19 20:22:00,SystemResetWarning,0827.8,5.01,000.00,023.3,022.7,000.0,031.6,025.1,14.0,0000.0,0004.37,0012.32,0003.67
2024-03-19 20:23:00,SystemResetWarning,0827.8,5.00,000.00,023.3,022.7,000.0,031.6,025.1,14.4,0000.0,0004.39,0012.77,0003.65
2024-03-19 20:24:00,SystemResetWarning,0827.8,5.00,000.00,023.3,022.8,000.0,031.6,025.1,13.4,0000.0,0004.40,0013.14,0003.65
2024-03-19 20:25:00,SystemResetWarning,0827.8,5.00,000.00,023.3,022.8,000.0,031.6,025.1,13.7,0000.0,0004.38,0012.61,0003.67
2024-03-19 20:26:00,SystemResetWarning,0827.7,5.00,000.00,023.4,022.8,000.0,031.6,025.1,13.9,0000.0,0004.39,0012.41,0003.68
2024-03-19 20:27:00,SystemResetWarning,0827.7,5.00,000.00,023.4,022.8,000.0,031.7,025.1,14.4,0000.0,0004.42,0012.56,0003.69
2024-03-19 20:28:00,SystemResetWarning,0827.7,5.00,000.00,023.4,022.8,000.0,031.7,025.2,13.9,0000.0,0004.41,0012.39,0003.68
2024-03-19 20:29:00,SystemResetWarning,0827.7,5.00,000.00,023.4,022.8,000.0,031.7,025.2,13.7,0000.0,0004.37,0012.03,0003.65
2024-03-19 20:30:00,SystemResetWarning,0827.7,5.00,000.00,023.4,022.9,000.0,031.7,025.2,14.1,0000.0,0004.33,0011.97,0003.61
2024-03-19 20:31:00,SystemResetWarning,0827.7,5.00,000.00,023.4,022.9,000.0,031.7,025.2,13.8,0000.0,0004.26,0012.27,0003.54
2024-03-19 20:32:00,SystemResetWarning,0827.7,5.00,000.00,023.4,022.9,000.0,031.7,025.2,12.8,0000.0,0004.23,0011.93,0003.49
2024-03-19 20:33:00,SystemResetWarning,0827.7,5.01,000.00,023.5,022.9,000.0,031.7,025.2,12.6,0000.0,0004.21,0012.27,0003.45
2024-03-19 20:34:00,SystemResetWarning,0827.7,5.00,000.00,023.5,022.9,000.0,031.8,025.2,12.5,0000.0,0004.15,0012.28,0003.39
2024-03-19 20:35:00,SystemResetWarning,0827.7,4.99,000.00,023.5,022.9,000.0,031.8,025.2,12.4,0000.0,0004.09,0011.90,0003.31
2024-03-19 20:36:00,SystemResetWarning,0827.7,4.99,000.00,023.5,022.9,000.0,031.8,025.3,12.6,0000.0,0004.03,0012.48,0003.24
2024-03-19 20:37:00,SystemResetWarning,0827.7,5.00,000.00,023.5,022.9,000.0,031.8,025.3,12.6,0000.0,0003.93,0012.15,0003.14
2024-03-19 20:38:00,SystemResetWarning,0827.7,5.01,000.00,023.5,022.9,000.0,031.8,025.3,12.7,0000.0,0003.87,0011.70,0003.03
2024-03-19 20:39:00,SystemResetWarning,0827.7,5.00,000.00,023.5,023.0,000.0,031.8,025.3,13.4,0000.0,0003.78,0011.43,0002.90
2024-03-19 20:40:00,SystemResetWarning,0827.7,5.00,000.00,023.5,023.0,000.0,031.8,025.3,13.6,0000.0,0003.73,0011.10,0002.80
2024-03-19 20:41:00,SystemResetWarning,0827.5,5.00,000.00,023.6,023.0,000.0,031.9,025.3,13.4,0000.0,0003.69,0010.79,0002.74
2024-03-19 20:42:00,SystemResetWarning,0827.6,5.00,000.00,023.6,023.0,000.0,031.9,025.4,13.8,0000.0,0003.70,0009.97,0002.74
2024-03-19 20:43:00,SystemResetWarning,0827.6,4.99,000.00,023.6,023.0,000.0,031.9,025.4,13.5,0000.0,0003.72,0009.97,0002.75
2024-03-19 20:44:00,SystemResetWarning,0827.6,4.99,000.00,023.6,023.0,000.0,031.9,025.4,13.8,0000.0,0003.68,0009.70,0002.72
2024-03-19 20:45:00,SystemResetWarning,0827.6,5.01,000.00,023.6,023.0,000.0,031.9,025.4,12.8,0000.0,0003.68,0008.79,0002.73
2024-03-19 20:46:00,SystemResetWarning,0827.5,5.00,000.00,023.6,023.0,000.0,031.9,025.4,13.6,0000.0,0003.65,0008.32,0002.77
2024-03-19 20:47:00,SystemResetWarning,0827.5,5.01,000.00,023.6,023.0,000.0,031.9,025.4,13.1,0000.0,0003.64,0007.55,0002.77
2024-03-19 20:48:00,SystemResetWarning,0827.6,4.99,000.00,023.7,023.1,000.0,032.0,025.5,13.2,0000.0,0003.64,0007.50,0002.79
2024-03-19 20:49:00,SystemResetWarning,0827.8,4.99,000.00,023.7,023.1,000.0,032.0,025.5,12.8,0000.0,0003.64,0007.52,0002.79
2024-03-19 20:50:00,SystemResetWarning,0827.4,5.00,000.00,023.7,023.1,000.0,032.0,025.5,12.7,0000.0,0003.66,0007.78,0002.79
2024-03-19 20:51:00,SystemResetWarning,0827.4,5.01,000.00,023.7,023.1,000.0,032.0,025.5,12.4,0000.0,0003.65,0008.28,0002.80
2024-03-19 20:52:00,SystemResetWarning,0827.4,5.01,000.00,023.7,023.1,000.0,032.0,025.5,13.1,0000.0,0003.64,0008.46,0002.80
2024-03-19 20:53:00,SystemResetWarning,0827.4,5.00,000.00,023.7,023.1,000.0,032.0,025.5,13.0,0000.0,0003.63,0009.23,0002.79
2024-03-19 20:54:00,SystemResetWarning,0827.4,5.00,000.00,023.7,023.2,000.0,032.0,025.5,13.0,0000.0,0003.64,0009.58,0002.78
2024-03-19 20:55:00,SystemResetWarning,0827.4,5.00,000.00,023.7,023.2,000.0,032.0,025.5,13.8,0000.0,0003.64,0009.93,0002.77
2024-03-19 20:56:00,SystemResetWarning,0827.4,5.00,000.00,023.8,023.2,000.0,032.0,025.5,13.9,0000.0,0003.64,0010.17,0002.74
2024-03-19 20:57:00,SystemResetWarning,0827.4,4.99,000.00,023.8,023.2,000.0,032.1,025.5,13.0,0000.0,0003.66,0010.57,0002.75
2024-03-19 20:58:00,SystemResetWarning,0827.4,5.01,000.00,023.8,023.2,000.0,032.1,025.5,13.1,0000.0,0003.69,0010.63,0002.77
2024-03-19 20:59:00,SystemResetWarning,0827.3,5.01,000.00,023.8,023.2,000.0,032.1,025.6,13.0,0000.0,0003.73,0010.78,0002.80
